Location: Waco, TX
(31.5480°N, 97.1670°W)
Time: 07:11:15
(UTC-05:00)

ISS - Pass Details

Date: 08 January 2018
Orbit: 402 x 409 km, 51.6° (Epoch: 21 August)

Event Time Altitude Azimuth Distance (km) Brightness Sun altitude
Rises 23:26:43 0° 127° (SE) 2,316 - -72.1°
Exits shadow 23:45:33 -32° 41° (NE) 7,601 3.1 -75.5°
Enters shadow 00:42:22 -37° 220° (SW) 8,294 3.2 -80.6°
Reaches altitude 10° 01:00:08 10° 204° (SSW) 1,458 - -79.2°
Maximum altitude 01:03:15 44° 131° (SE) 578 - -78.8°
Drops below altitude 10° 01:06:26 10° 58° (ENE) 1,479 - -78.4°
Sets 01:08:35 0° 52° (NE) 2,349 - -78.1°
